Location: Unnamed
(48.6007°N, 2.4808°E)
Time: 09:58:06
(UTC+02:00)

PCSat - Pass Details

Date: 28 March 2023
Orbit: 783 x 794 km, 67.1° (Epoch: 29 May)

Event Time Altitude Azimuth Distance (km) Brightness Sun altitude
Rises 23:43:45 0° 324° (NW) 3,299 13.9 -30.9°
Reaches altitude 10° 23:47:18 10° 347° (NNW) 2,370 12.8 -31.3°
Maximum altitude 23:50:23 15° 22° (NNE) 2,036 12.0 -31.6°
Enters shadow 23:51:56 14° 41° (NE) 2,126 11.9 -31.7°
